This is the latest recevied weather packets stored in our database for station/object KI4BIY. If no packets are shown the sender has not sent any weather packets the latest 10 day(s).
| Time | Temp. | Humidity | Pressure | Rain* | Wind** | Luminosity | Snow |
|---|---|---|---|---|---|---|---|
| 1778212521 | 10.56° C | 90% | 1015.8 hPa | 0 mm | - | 0 W/m² | - |
| 1778212218 | 10.56° C | 89% | 1015.8 hPa | 0 mm | - | 0 W/m² | - |
| 1778211915 | 10.56° C | 88% | 1015.8 hPa | 0 mm | - | 0 W/m² | - |
| 1778211612 | 10.56° C | 86% | 1015.7 hPa | 0 mm | - | 0 W/m² | - |
| 1778211310 | 10.56° C | 86% | 1016.1 hPa | 0 mm | - | 0 W/m² | - |
| 1778211008 | 11.11° C | 87% | 1015.9 hPa | 0 mm | - | 0 W/m² | - |
| 1778210704 | 11.11° C | 86% | 1016.2 hPa | 0 mm | - | 0 W/m² | - |
| 1778210401 | 11.11° C | 86% | 1016.2 hPa | 0 mm | - | 0 W/m² | - |
| 1778210099 | 11.11° C | 87% | 1015.9 hPa | 0 mm | - | 0 W/m² | - |
| 1778209794 | 11.11° C | 86% | 1016 hPa | 0 mm | - | 0 W/m² | - |
| 1778209491 | 11.11° C | 84% | 1016.3 hPa | 0 mm | - | 0 W/m² | - |
| 1778209189 | 11.11° C | 85% | 1016.1 hPa | 0 mm | - | 0 W/m² | - |
| 1778208885 | 11.67° C | 82% | 1015.9 hPa | 0 mm | - | 0 W/m² | - |
| 1778208583 | 11.67° C | 81% | 1016 hPa | 0 mm | - | 0 W/m² | - |
| 1778208278 | 11.67° C | 82% | 1016 hPa | 0 mm | - | 0 W/m² | - |
| 1778207975 | 11.67° C | 81% | 1016 hPa | 0 mm | - | 0 W/m² | - |
| 1778207672 | 11.67° C | 86% | 1015.9 hPa | 0 mm | - | 0 W/m² | - |
| 1778207369 | 11.67° C | 86% | 1015.6 hPa | 0 mm | - | 0 W/m² | - |
| 1778207065 | 11.67° C | 84% | 1015.9 hPa | 0 mm | - | 0 W/m² | - |
| 1778206762 | 12.22° C | 86% | 1015.7 hPa | 0 mm | - | 0 W/m² | - |
| 1778206458 | 11.67° C | 83% | 1015.7 hPa | 0 mm | - | 0 W/m² | - |
| 1778206154 | 12.22° C | 86% | 1015.3 hPa | 0 mm | - | 0 W/m² | - |
| 1778205852 | 12.22° C | 86% | 1015.3 hPa | 0 mm | - | 0 W/m² | - |
| 1778205549 | 12.22° C | 84% | 1015.3 hPa | 0 mm | - | 0 W/m² | - |
| 1778205247 | 12.78° C | 84% | 1015.2 hPa | 0 mm | - | 0 W/m² | - |
* Rain latest hour (hover to see other rain measurements)
** Current wind speed in m/s (hover to see current wind gust speed)